Regional Weather Roundup
Issued by NWS

Home | Current Version | Previous Version | Graphics & Text | Print | Product List | Glossary On
Versions: 1 2 3 4 5 6 7 8 9 10 11 12 13 14 15 16 17 18 19 20 21 22 23 24 25 26 27 28 29 30 31 32 33 34 35 36 37 38 39 40 41 42 43 44 45 46 47 48 49 50
000
ASUS43 KMPX 252310
RWRMN
WEATHER ROUNDUP FOR MINNESOTA
NATIONAL WEATHER SERVICE TWIN CITIES/CHANHASSEN MN
600 PM CDT WED APR 25 2018


NOTE: "FAIR" INDICATES FEW OR NO CLOUDS BELOW 12,000 FEET WITH NO
SIGNIFICANT WEATHER AND/OR OBSTRUCTIONS TO VISIBILITY. N/A MEANS
CURRENT SKY AND/OR WEATHER CONDITIONS ARE NOT AVAILABLE.

MNZ060>063-068>070-260000-
   Twin Cities Metro

CITY           SKY/WX    TMP DP  RH WIND       PRES   REMARKS
TWIN CITIES    PTSUNNY   59  24  26 SW6       30.03F
ST PAUL        FAIR      59  21  23 SW8       30.03F
CRYSTAL        FAIR      58  25  28 CALM      30.03F
BLAINE         MOSUNNY   61  25  25 W6        30.03F
LAKEVILLE      FAIR      55  27  33 SW3       30.03F
EDEN PRAIRIE   FAIR      57  26  30 SW8       30.03F
SOUTH ST PAUL  FAIR      59  22  23 W3        30.03F
LAKE ELMO      FAIR      57  23  26 CALM      30.04F
$$
MNZ001>005-007-008-013>017-022>024-027-028-260000-
   Northwest Minnesota

CITY           SKY/WX    TMP DP  RH WIND       PRES   REMARKS
BEMIDJI        FAIR      57  27  30 SW14      29.93F
HALLOCK        FAIR      66  25  20 SW25G31   29.79F
ROSEAU         FAIR      61  39  44 SW23G29   29.83F
WARROAD        FAIR      61  37  41 SW21G29   29.84F
THIEF RVR FALL FAIR      60  32  34 SW22G29   29.87F
CROOKSTON      FAIR      63  34  34 SW22      29.87F
FOSSTON        FAIR      57  30  35 S20G28    29.91F
DETROIT LAKES  FAIR      57  32  38 SW10G17   29.96F
MOORHEAD       FAIR      63  30  29 S16G22    29.93F
PARK RAPIDS    FAIR      58  28  32 SW18      29.96F
MAHNOMEN       FAIR      58  33  38 SW22      29.92F
$$
MNZ006-009>011-018-025>026-260000-
   North Central Minnesota

CITY           SKY/WX    TMP DP  RH WIND       PRES   REMARKS
BAUDETTE       FAIR      60  35  39 SW17G25   29.86F
FLAG ISLAND    FAIR      52  34  50 S18G24    29.80F
INTL FALLS     FAIR      60  27  28 SW14G23   29.88F
WASKISH        FAIR      55  30  38 SW12      29.90F
BIG FORK       FAIR      57  28  33 SW14      29.94F
LONGVILLE      FAIR      57  25  28 SW8       29.97F
GRAND RAPIDS   FAIR      57  26  30 S10       29.97F
CRANE LAKE     FAIR      57  21  24 SW8       29.93F
ORR            FAIR      57  19  23 SW9       29.91F
COOK           FAIR      57  25  28 SW9       29.94F
WALKER         FAIR      56  27  33 S9        29.95F
$$
MNZ012-019>021-037-260000-
   Northeast Minnesota

CITY           SKY/WX    TMP DP  RH WIND       PRES   REMARKS
DULUTH         FAIR      57  22  25 VRB7      29.98F
ELY            FAIR      57  21  24 SW10      29.94F
HIBBING        FAIR      56  23  27 SW8G17    29.96F
EVELETH        FAIR      57  26  29 SW13      29.97F
DULUTH HARBOR  FAIR      41  30  65 NE5       30.01S
TWO HARBORS    FAIR      57  30  35 S10       29.98S
SILVER BAY     FAIR      54  21  28 S6        29.98S
GRAND MARAIS     N/A     38  31  76 SW7       30.02F
G MARAIS ARPRT FAIR      43  19  39 SW7       29.99S
$$
MNZ029>031-032-039>041-046>048-054>057-064-260000-
   West Central Minnesota

CITY           SKY/WX    TMP DP  RH WIND       PRES   REMARKS
FERGUS FALLS   FAIR      59  34  38 SW14      29.95F
WHEATON        SUNNY     61  25  25 SW12      30.00F
MORRIS         SUNNY     61  34  36 S10       30.00F
ALEXANDRIA     FAIR      58  29  33 SW12      30.02F
ELBOW LAKE     FAIR      59  33  38 W10G18    30.00F
WADENA         FAIR      57  30  35 SW13      29.98F
GLENWOOD       FAIR      57  27  30 SW10      30.02F
APPLETON       SUNNY     61  27  27 S9        30.01F
BENSON         SUNNY     57  27  30 SW13      30.04F
ORTONVILLE     SUNNY     61  28  29 SW8       30.00F
WILLMAR        FAIR      55  34  44 SW8       30.06F
$$
MNZ033>034-036-042>043-049>051-058-059-260000-
   Central Minnesota

CITY           SKY/WX    TMP DP  RH WIND       PRES   REMARKS
ST CLOUD       FAIR      57  25  29 S10       30.02F
SAUK CENTRE    FAIR      57  31  38 S9        30.02F
PAYNESVILLE    FAIR      56  29  35 S9        30.03F
AITKIN         FAIR      54  25  32 S9        29.98F
PINE RIVER     FAIR      55  30  38 SW9G17    30.01F
BRAINERD       FAIR      58  26  29 S8        29.99F
STAPLES        FAIR      57  25  28 SW12      30.00F
LONG PRAIRIE   FAIR      55  28  35 S7        30.02F
LITTLE FALLS   FAIR      55  12  18 SW7       30.01F
LITCHFIELD     FAIR      57  32  38 SW6       30.05F
BUFFALO        FAIR      56  27  32 S7        30.04F
MAPLE LAKE     FAIR      58  31  34 SW3       30.05F
HUTCHINSON     FAIR      57  37  47 SW7       30.06F
$$
MNZ037-044-045-052-053-260000-
   East Central Minnesota

CITY           SKY/WX    TMP DP  RH WIND       PRES   REMARKS
PRINCETON      FAIR      61  21  21 SW7       30.03F
MORA           FAIR      55  23  28 W7        30.04F
CAMBRIDGE      FAIR      61  36  39 W7        30.03F
RUSH CITY      FAIR      56  22  26 SW5       30.03F
MOOSE LAKE     FAIR      59  23  25 SW8       29.99F
HINCKLEY       FAIR      57  30  35 SW9       30.01F
CLOQUET        FAIR      57  14  18 SW12      29.98F
MCGREGOR       FAIR      55  27  33 S7        30.00F
$$
MNZ071>073-080-081-089-090-097-098-260000-
   Southwest Minnesota

CITY           SKY/WX    TMP DP  RH WIND       PRES   REMARKS
MONTEVIDEO     SUNNY     61  30  31 SW7       30.04F
GRANITE FALLS  SUNNY     59  34  38 S5        30.05F
CANBY          MOSUNNY   59  29  31 SW8       30.04F
MARSHALL       SUNNY     58  33  39 SW9       30.04F
REDWOOD FALLS  SUNNY     55  31  39 SW8       30.05F
OLIVIA         SUNNY     55  32  41 SW6       30.04F
PIPESTONE      SUNNY    N/A N/A N/A SW7       30.04F
WINDOM         SUNNY     57  28  33 CALM      30.06F
WORTHINGTON    MOSUNNY   57  31  37 W3        30.06F
JACKSON        SUNNY     54  30  40 W6        30.07F
TRACY          SUNNY     57  34  41 S5        30.04F
SLAYTON        SUNNY     56  32  40 SW3       30.05F
$$
MNZ065>067-074>077-082>085-091>093-260000-
   South Central Minnesota

CITY           SKY/WX    TMP DP  RH WIND       PRES   REMARKS
MANKATO        FAIR      56  33  42 VRB6      30.05F
NEW ULM        SUNNY     55  30  38 NW5       30.05F
ST JAMES       SUNNY     55  34  44 CALM      30.07F
FAIRMONT       SUNNY     55  30  38 CALM      30.06F
GLENCOE        FAIR      56  32  40 SW7       30.04F
OWATONNA       FAIR      57  32  38 W6        30.05F
WASECA         FAIR      55  32  41 NW5       30.07F
ALBERT LEA     FAIR      55  27  33 NW5       30.05F
$$
MNZ078>079-086>088-094>096-260000-
   Southeast Minnesota

CITY           SKY/WX    TMP DP  RH WIND       PRES   REMARKS
ROCHESTER      FAIR      59  30  33 NW5       30.04F
RED WING       FAIR      61  16  17 W7        30.03S
STANTON        FAIR      59  29  31 NW6       30.03F
DODGE CENTER   FAIR      55  28  35 NW9       30.05S
WINONA         FAIR      59  27  29 N3        30.01F
AUSTIN         FAIR      57  28  33 CALM      30.04F
PRESTON        FAIR      56  25  30 N3        30.04F
$$
ABBREVIATIONS USED IN REMARKS
   TC - TEMPERATURES IN CELSIUS
  WCI - WIND CHILL INDEX
   HX - HEAT INDEX
  VSB - VISIBILITY
$$




USA.gov is the U.S. government's official web portal to all federal, state and local government web resources and services.